,,,PA_Meas_PMT16A,,PR_Meas_QMR101_102,,RH_Meas_QMH101,,SR_Meas_QMS101,,TA_Meas_QMH101,,GenWind,,GenWind,
date,time,status,PA,status,PR,status,RH,status,SR,status,TA,status,DirAvg,status,SpdAvg,
2008-08-10, 00:00:04,VALID,1010.79,VALID,0,VALID,96.1684,VALID,0.105969,VALID,22.465,VALID,193,VALID,1.5793,
2008-08-10, 00:01:04,VALID,1010.78,VALID,0,VALID,96.1913,VALID,0,VALID,22.4667,VALID,183,VALID,1.15234,
2008-08-10, 00:02:04,VALID,1010.79,VALID,0,VALID,96.176,VALID,0,VALID,22.4861,VALID,207,VALID,1.34023,
2008-08-10, 00:03:04,VALID,1010.76,VALID,0,VALID,96.1836,VALID,0,VALID,22.5073,VALID,185,VALID,1.03203,
2008-08-10, 00:04:04,VALID,1010.72,VALID,0,VALID,96.1608,VALID,0,VALID,22.4878,VALID,187,VALID,1.52461,
2008-08-10, 00:05:04,VALID,1010.7,VALID,0,VALID,96.1913,VALID,0,VALID,22.5056,VALID,205,VALID,0.925391,
2008-08-10, 00:06:04,VALID,1010.69,VALID,0.5,VALID,96.176,VALID,0,VALID,22.4861,VALID,190,VALID,0.641797,
2008-08-10, 00:07:04,VALID,1010.64,VALID,0,VALID,96.1989,VALID,0,VALID,22.4667,VALID,184,VALID,0.997266,
2008-08-10, 00:08:04,VALID,1010.64,VALID,0,VALID,96.2141,VALID,0,VALID,22.4861,VALID,183,VALID,0.463672,
2008-08-10, 00:09:04,VALID,1010.57,VALID,0,VALID,96.1836,VALID,0,VALID,22.5056,VALID,200,VALID,0.937891,
2008-08-10, 00:10:04,VALID,1010.52,VALID,0,VALID,96.2065,VALID,0,VALID,22.5056,VALID,212,VALID,0.528516,
2008-08-10, 00:11:04,VALID,1010.48,VALID,0,VALID,96.1989,VALID,0,VALID,22.5446,VALID,210,VALID,0.975781,
2008-08-10, 00:12:04,VALID,1010.42,VALID,0,VALID,96.2218,VALID,0,VALID,22.5446,VALID,197,VALID,0.569922,
2008-08-10, 00:13:04,VALID,1010.36,VALID,0.5,VALID,96.1989,VALID,0,VALID,22.5446,VALID,196,VALID,0.853516,
2008-08-10, 00:14:04,VALID,1010.33,VALID,0,VALID,96.1989,VALID,0,VALID,22.5251,VALID,208,VALID,1.20898,
2008-08-10, 00:15:04,VALID,1010.29,VALID,0,VALID,96.176,VALID,0,VALID,22.5251,VALID,214,VALID,0.712891,
2008-08-10, 00:16:04,VALID,1010.23,VALID,0,VALID,96.1836,VALID,0,VALID,22.5446,VALID,224,VALID,1.19727,
2008-08-10, 00:17:04,VALID,1010.23,VALID,0,VALID,96.2141,VALID,0,VALID,22.5446,VALID,193,VALID,0.264844,
2008-08-10, 00:18:04,VALID,1010.23,VALID,0,VALID,96.1836,VALID,0,VALID,22.564,VALID,194,VALID,0.823438,
2008-08-10, 00:19:04,VALID,1010.24,VALID,0,VALID,96.1989,VALID,0,VALID,22.5658,VALID,185,VALID,0.493359,
2008-08-10, 00:20:04,VALID,1010.21,VALID,0,VALID,96.2141,VALID,0,VALID,22.5446,VALID,185,VALID,0.203906,
2008-08-10, 00:21:04,VALID,1010.23,VALID,0,VALID,96.1989,VALID,0,VALID,22.564,VALID,185,VALID,0.177734,
2008-08-10, 00:22:04,VALID,1010.23,VALID,0,VALID,96.2218,VALID,0,VALID,22.5446,VALID,170,VALID,0.430078,
2008-08-10, 00:23:04,VALID,1010.21,VALID,0,VALID,96.1913,VALID,0,VALID,22.5446,VALID,160,VALID,0.583594,
2008-08-10, 00:24:04,VALID,1010.2,VALID,0,VALID,96.1989,VALID,0,VALID,22.5446,VALID,179,VALID,0.358594,
2008-08-10, 00:25:04,VALID,1010.19,VALID,0,VALID,96.1913,VALID,0,VALID,22.5446,VALID,159,VALID,0.461719,
2008-08-10, 00:26:04,VALID,1010.2,VALID,0,VALID,96.1989,VALID,0,VALID,22.5056,VALID,144,VALID,0.595703,
2008-08-10, 00:27:04,VALID,1010.19,VALID,0,VALID,96.1913,VALID,0,VALID,22.5251,VALID,139,VALID,0.4625,
2008-08-10, 00:28:04,VALID,1010.16,VALID,0,VALID,96.2294,VALID,0,VALID,22.5251,VALID,135,VALID,0.401953,
2008-08-10, 00:29:04,VALID,1010.17,VALID,0,VALID,96.2065,VALID,0,VALID,22.5251,VALID,135,VALID,0.408203,
2008-08-10, 00:30:04,VALID,1010.15,VALID,0,VALID,96.2065,VALID,0,VALID,22.5251,VALID,145,VALID,0.7875,
2008-08-10, 00:31:04,VALID,1010.16,VALID,0.5,VALID,96.2218,VALID,0,VALID,22.5056,VALID,149,VALID,0.621094,
2008-08-10, 00:32:04,VALID,1010.14,VALID,0,VALID,96.2065,VALID,0,VALID,22.564,VALID,146,VALID,0.478516,
2008-08-10, 00:33:04,VALID,1010.15,VALID,0,VALID,96.2141,VALID,0,VALID,22.5251,VALID,122,VALID,0.677344,
2008-08-10, 00:34:04,VALID,1010.1,VALID,0,VALID,96.2065,VALID,0,VALID,22.5251,VALID,127,VALID,0.239453,
2008-08-10, 00:35:04,VALID,1010.09,VALID,0,VALID,96.237,VALID,0,VALID,22.5251,VALID,142,VALID,0.582031,
2008-08-10, 00:36:04,VALID,1010.07,VALID,0,VALID,96.2218,VALID,0,VALID,22.5056,VALID,143,VALID,0.498047,
2008-08-10, 00:37:04,VALID,1010.04,VALID,0,VALID,96.2218,VALID,0,VALID,22.5251,VALID,161,VALID,0.543359,
2008-08-10, 00:38:04,VALID,1010.02,VALID,0,VALID,96.2218,VALID,0,VALID,22.5039,VALID,163,VALID,0.525,
2008-08-10, 00:39:04,VALID,1010.03,VALID,0,VALID,96.2218,VALID,0,VALID,22.5251,VALID,164,VALID,0.339844,
2008-08-10, 00:40:04,VALID,1010.04,VALID,0,VALID,96.2294,VALID,0,VALID,22.5056,VALID,164,VALID,0.226172,
2008-08-10, 00:41:04,VALID,1010.07,VALID,0,VALID,96.237,VALID,0,VALID,22.5056,VALID,164,VALID,0.0453125,
2008-08-10, 00:42:04,VALID,1010.06,VALID,0,VALID,96.2218,VALID,0,VALID,22.5251,VALID,164,VALID,0,
2008-08-10, 00:43:04,VALID,1010.11,VALID,0,VALID,96.2523,VALID,0,VALID,22.5251,VALID,164,VALID,0,
2008-08-10, 00:44:04,VALID,1010.12,VALID,0,VALID,96.237,VALID,0,VALID,22.5251,VALID,155,VALID,0.338672,
2008-08-10, 00:45:04,VALID,1010.11,VALID,0,VALID,96.237,VALID,0,VALID,22.5446,VALID,111,VALID,0.288672,
2008-08-10, 00:46:04,VALID,1010.08,VALID,0,VALID,96.2446,VALID,0,VALID,22.5234,VALID,80,VALID,0.495313,
2008-08-10, 00:47:04,VALID,1010.1,VALID,0,VALID,96.2294,VALID,0,VALID,22.564,VALID,80,VALID,0.423828,
2008-08-10, 00:48:04,VALID,1010.09,VALID,0,VALID,96.2523,VALID,0,VALID,22.5835,VALID,93,VALID,0.489453,
2008-08-10, 00:49:04,VALID,1010.05,VALID,0,VALID,96.2446,VALID,0,VALID,22.5835,VALID,138,VALID,0.857422,
2008-08-10, 00:50:04,VALID,1010.04,VALID,0,VALID,96.2446,VALID,0,VALID,22.5835,VALID,149,VALID,0.761328,
2008-08-10, 00:51:04,VALID,1010.01,VALID,0,VALID,96.2523,VALID,0,VALID,22.6047,VALID,158,VALID,0.724609,
2008-08-10, 00:52:04,VALID,1010.04,VALID,0,VALID,96.2446,VALID,0,VALID,22.5835,VALID,166,VALID,0.749609,
2008-08-10, 00:53:04,VALID,1010.03,VALID,0,VALID,96.2294,VALID,0,VALID,22.564,VALID,161,VALID,0.547266,
2008-08-10, 00:54:04,VALID,1010.02,VALID,0,VALID,96.2523,VALID,0,VALID,22.564,VALID,153,VALID,0.670703,
2008-08-10, 00:55:04,VALID,1010.03,VALID,0,VALID,96.2446,VALID,0,VALID,22.5446,VALID,151,VALID,0.64375,
2008-08-10, 00:56:04,VALID,1010.02,VALID,0,VALID,96.2446,VALID,0,VALID,22.5251,VALID,143,VALID,0.55,
2008-08-10, 00:57:04,VALID,1010.05,VALID,0,VALID,96.2446,VALID,0,VALID,22.5251,VALID,128,VALID,0.577734,
2008-08-10, 00:58:04,VALID,1010.08,VALID,0,VALID,96.2446,VALID,0,VALID,22.5446,VALID,127,VALID,0.514453,
2008-08-10, 00:59:04,VALID,1010.11,VALID,0,VALID,96.2523,VALID,0,VALID,22.5446,VALID,136,VALID,0.671484,
2008-08-10, 01:00:04,VALID,1010.13,VALID,0,VALID,96.2446,VALID,0,VALID,22.564,VALID,119,VALID,0.829687,
2008-08-10, 01:01:04,VALID,1010.14,VALID,0,VALID,96.237,VALID,0.105969,VALID,22.564,VALID,120,VALID,0.966797,
2008-08-10, 01:02:04,VALID,1010.15,VALID,0,VALID,96.2523,VALID,0.105969,VALID,22.5623,VALID,119,VALID,0.967969,
2008-08-10, 01:03:04,VALID,1010.17,VALID,0,VALID,96.2523,VALID,0,VALID,22.5429,VALID,119,VALID,0.912109,
2008-08-10, 01:04:04,VALID,1010.17,VALID,0,VALID,96.2446,VALID,0.105969,VALID,22.5429,VALID,131,VALID,1.04688,
2008-08-10, 01:05:04,VALID,1010.12,VALID,0,VALID,96.2675,VALID,0.105969,VALID,22.5623,VALID,130,VALID,0.923437,
2008-08-10, 01:06:04,VALID,1010.13,VALID,0,VALID,96.2523,VALID,0.105969,VALID,22.5429,VALID,151,VALID,0.607031,
2008-08-10, 01:07:04,VALID,1010.09,VALID,0,VALID,96.2523,VALID,0,VALID,22.5835,VALID,177,VALID,0.94375,
2008-08-10, 01:08:04,VALID,1010.1,VALID,0,VALID,96.2523,VALID,0.105969,VALID,22.5623,VALID,169,VALID,0.637891,
2008-08-10, 01:09:04,VALID,1010.11,VALID,0,VALID,96.2523,VALID,0.105969,VALID,22.5623,VALID,155,VALID,0.294531,
2008-08-10, 01:10:04,VALID,1010.11,VALID,0,VALID,96.2523,VALID,0.105969,VALID,22.5623,VALID,163,VALID,0.280859,
2008-08-10, 01:11:04,VALID,1010.09,VALID,0,VALID,96.2751,VALID,0.105969,VALID,22.6225,VALID,157,VALID,0.749219,
2008-08-10, 01:12:04,VALID,1010.09,VALID,0,VALID,96.2599,VALID,0.105969,VALID,22.5623,VALID,150,VALID,0.732422,
2008-08-10, 01:13:04,VALID,1010.07,VALID,0,VALID,96.2523,VALID,0.105969,VALID,22.5623,VALID,159,VALID,0.655859,
2008-08-10, 01:14:04,VALID,1010.04,VALID,0,VALID,96.2751,VALID,0.105969,VALID,22.5623,VALID,166,VALID,0.628516,
2008-08-10, 01:15:04,VALID,1010.03,VALID,0,VALID,96.2599,VALID,0.105969,VALID,22.5835,VALID,166,VALID,0.670313,
2008-08-10, 01:16:04,VALID,1010.04,VALID,0,VALID,96.2675,VALID,0,VALID,22.564,VALID,140,VALID,0.530078,
2008-08-10, 01:17:04,VALID,1009.99,VALID,0,VALID,96.2751,VALID,0,VALID,22.5852,VALID,134,VALID,0.708594,
2008-08-10, 01:18:04,VALID,1009.98,VALID,0,VALID,96.2599,VALID,0,VALID,22.603,VALID,125,VALID,0.636328,
2008-08-10, 01:19:04,VALID,1009.93,VALID,0,VALID,96.2446,VALID,0,VALID,22.603,VALID,133,VALID,0.604688,
2008-08-10, 01:20:04,VALID,1009.92,VALID,0,VALID,96.2675,VALID,0,VALID,22.6242,VALID,127,VALID,0.666016,
2008-08-10, 01:21:04,VALID,1009.89,VALID,0,VALID,96.2523,VALID,0,VALID,22.5835,VALID,145,VALID,0.938672,
2008-08-10, 01:22:04,VALID,1009.87,VALID,0,VALID,96.2523,VALID,0,VALID,22.5835,VALID,148,VALID,0.694531,
2008-08-10, 01:23:04,VALID,1009.86,VALID,0,VALID,96.2599,VALID,0,VALID,22.5446,VALID,132,VALID,0.690625,
2008-08-10, 01:24:04,VALID,1009.83,VALID,0,VALID,96.2675,VALID,0,VALID,22.6047,VALID,147,VALID,1.08555,
2008-08-10, 01:25:04,VALID,1009.83,VALID,0,VALID,96.2599,VALID,0,VALID,22.5852,VALID,150,VALID,0.903125,
2008-08-10, 01:26:04,VALID,1009.79,VALID,0,VALID,96.2599,VALID,0,VALID,22.5658,VALID,137,VALID,0.745313,
2008-08-10, 01:27:04,VALID,1009.79,VALID,0,VALID,96.2828,VALID,0,VALID,22.5835,VALID,122,VALID,0.728516,
2008-08-10, 01:28:04,VALID,1009.82,VALID,0,VALID,96.2751,VALID,0,VALID,22.564,VALID,120,VALID,0.810938,
2008-08-10, 01:29:04,VALID,1009.77,VALID,0,VALID,96.2751,VALID,0,VALID,22.6047,VALID,120,VALID,0.691797,
2008-08-10, 01:30:04,VALID,1009.75,VALID,0,VALID,96.2523,VALID,0,VALID,22.5852,VALID,136,VALID,1.50586,
2008-08-10, 01:31:04,VALID,1009.74,VALID,0,VALID,96.2675,VALID,0.105969,VALID,22.5818,VALID,104,VALID,0.902344,
2008-08-10, 01:32:04,VALID,1009.71,VALID,0,VALID,96.2599,VALID,0,VALID,22.564,VALID,113,VALID,1.32578,
2008-08-10, 01:33:04,VALID,1009.69,VALID,0,VALID,96.2675,VALID,0.105969,VALID,22.5446,VALID,135,VALID,0.731641,
2008-08-10, 01:34:04,VALID,1009.72,VALID,0,VALID,96.2675,VALID,0.105969,VALID,22.564,VALID,145,VALID,0.916016,
2008-08-10, 01:35:04,VALID,1009.69,VALID,0,VALID,96.2523,VALID,0.105969,VALID,22.5251,VALID,124,VALID,1.05586,
2008-08-10, 01:36:04,VALID,1009.72,VALID,0,VALID,96.2675,VALID,0,VALID,22.5446,VALID,133,VALID,1.19492,
2008-08-10, 01:37:04,VALID,1009.67,VALID,0,VALID,96.2675,VALID,0,VALID,22.5446,VALID,125,VALID,1.31641,
2008-08-10, 01:38:04,VALID,1009.69,VALID,0,VALID,96.2675,VALID,0,VALID,22.5056,VALID,124,VALID,1.20156,
2008-08-10, 01:39:04,VALID,1009.67,VALID,0,VALID,96.2675,VALID,0.105969,VALID,22.5056,VALID,134,VALID,1.36602,
2008-08-10, 01:40:04,VALID,1009.65,VALID,0,VALID,96.2599,VALID,0.105969,VALID,22.4861,VALID,122,VALID,1.24883,
2008-08-10, 01:41:04,VALID,1009.66,VALID,0,VALID,96.2599,VALID,0,VALID,22.4455,VALID,134,VALID,1.17891,
2008-08-10, 01:42:04,VALID,1009.64,VALID,0,VALID,96.2599,VALID,0.105969,VALID,22.4472,VALID,140,VALID,0.640625,
2008-08-10, 01:43:04,VALID,1009.62,VALID,0,VALID,96.2675,VALID,0,VALID,22.4667,VALID,143,VALID,0.503906,
2008-08-10, 01:44:04,VALID,1009.62,VALID,0,VALID,96.2751,VALID,0,VALID,22.4667,VALID,130,VALID,0.826563,
2008-08-10, 01:45:04,VALID,1009.61,VALID,0,VALID,96.2751,VALID,0.105969,VALID,22.4667,VALID,119,VALID,0.941406,
2008-08-10, 01:46:04,VALID,1009.59,VALID,0,VALID,96.2828,VALID,0,VALID,22.4472,VALID,130,VALID,1.69648,
2008-08-10, 01:47:04,VALID,1009.54,VALID,0,VALID,96.2751,VALID,0,VALID,22.4455,VALID,128,VALID,1.12852,
2008-08-10, 01:48:04,VALID,1009.53,VALID,0,VALID,96.2675,VALID,0.105969,VALID,22.4472,VALID,126,VALID,1.51367,
2008-08-10, 01:49:04,VALID,1009.48,VALID,0,VALID,96.2599,VALID,0,VALID,22.3887,VALID,133,VALID,2.07266,
2008-08-10, 01:50:04,VALID,1009.44,VALID,0,VALID,96.2599,VALID,0.105969,VALID,22.3887,VALID,130,VALID,1.72227,
2008-08-10, 01:51:04,VALID,1009.38,VALID,0,VALID,96.237,VALID,0.105969,VALID,22.3693,VALID,129,VALID,1.49688,
2008-08-10, 01:52:04,VALID,1009.34,VALID,0,VALID,96.2675,VALID,0.105969,VALID,22.3481,VALID,149,VALID,1.41016,
2008-08-10, 01:53:04,VALID,1009.3,VALID,0,VALID,96.2523,VALID,0,VALID,22.3091,VALID,150,VALID,1.58398,
2008-08-10, 01:54:04,VALID,1009.31,VALID,0,VALID,96.2828,VALID,0.105969,VALID,22.3091,VALID,164,VALID,1.31992,
2008-08-10, 01:55:04,VALID,1009.32,VALID,0,VALID,96.2904,VALID,0.105969,VALID,22.3091,VALID,162,VALID,1.25508,
2008-08-10, 01:56:04,VALID,1009.3,VALID,0,VALID,96.2904,VALID,0.105969,VALID,22.3286,VALID,182,VALID,1.53789,
2008-08-10, 01:57:04,VALID,1009.35,VALID,0,VALID,96.2675,VALID,0.105969,VALID,22.3286,VALID,172,VALID,1.17773,
2008-08-10, 01:58:04,VALID,1009.33,VALID,0,VALID,96.2751,VALID,0.105969,VALID,22.3286,VALID,142,VALID,1.00977,
2008-08-10, 01:59:04,VALID,1009.31,VALID,0,VALID,96.2675,VALID,0.105969,VALID,22.2897,VALID,142,VALID,1.32891,
2008-08-10, 02:00:04,VALID,1009.34,VALID,0,VALID,96.2828,VALID,0.105969,VALID,22.3091,VALID,146,VALID,0.605859,
2008-08-10, 02:01:04,VALID,1009.32,VALID,0,VALID,96.2751,VALID,0,VALID,22.3108,VALID,182,VALID,0.805859,
2008-08-10, 02:02:04,VALID,1009.33,VALID,0,VALID,96.2675,VALID,0,VALID,22.3125,VALID,159,VALID,1.55859,
2008-08-10, 02:03:04,VALID,1009.32,VALID,0,VALID,96.2675,VALID,0,VALID,22.2719,VALID,148,VALID,1.21523,
2008-08-10, 02:04:04,VALID,1009.32,VALID,0,VALID,96.2751,VALID,0,VALID,22.293,VALID,168,VALID,1.43906,
2008-08-10, 02:05:04,VALID,1009.34,VALID,0,VALID,96.2828,VALID,0,VALID,22.2736,VALID,201,VALID,1.36016,
2008-08-10, 02:06:04,VALID,1009.33,VALID,0,VALID,96.2828,VALID,0,VALID,22.2524,VALID,200,VALID,1.16992,
2008-08-10, 02:07:04,VALID,1009.32,VALID,0,VALID,96.2828,VALID,0,VALID,22.2736,VALID,174,VALID,1.27852,
2008-08-10, 02:08:04,VALID,1009.31,VALID,0,VALID,96.2751,VALID,0,VALID,22.2541,VALID,211,VALID,0.989062,
2008-08-10, 02:09:04,VALID,1009.29,VALID,0,VALID,96.2904,VALID,0,VALID,22.2134,VALID,160,VALID,1.31914,
2008-08-10, 02:10:04,VALID,1009.29,VALID,0,VALID,96.2675,VALID,0,VALID,22.194,VALID,144,VALID,0.920703,
2008-08-10, 02:11:04,VALID,1009.32,VALID,0,VALID,96.2675,VALID,0,VALID,22.2134,VALID,186,VALID,0.724219,
2008-08-10, 02:12:04,VALID,1009.31,VALID,0,VALID,96.2828,VALID,0,VALID,22.194,VALID,136,VALID,0.877734,
2008-08-10, 02:13:04,VALID,1009.31,VALID,0,VALID,96.2904,VALID,0,VALID,22.194,VALID,161,VALID,1.21211,
2008-08-10, 02:14:04,VALID,1009.33,VALID,0,VALID,96.2751,VALID,0,VALID,22.194,VALID,146,VALID,0.992188,
2008-08-10, 02:15:04,VALID,1009.35,VALID,0,VALID,96.2904,VALID,0,VALID,22.2151,VALID,141,VALID,0.696094,
2008-08-10, 02:16:04,VALID,1009.37,VALID,0,VALID,96.298,VALID,0,VALID,22.2329,VALID,138,VALID,0.982422,
2008-08-10, 02:17:04,VALID,1009.33,VALID,0,VALID,96.2904,VALID,0,VALID,22.1745,VALID,140,VALID,1.78711,
2008-08-10, 02:18:04,VALID,1009.35,VALID,0,VALID,96.2675,VALID,0,VALID,22.155,VALID,171,VALID,1.92695,
2008-08-10, 02:19:04,VALID,1009.31,VALID,0,VALID,96.2675,VALID,0,VALID,22.1161,VALID,155,VALID,1.9707,
2008-08-10, 02:20:04,VALID,1009.29,VALID,0,VALID,96.2675,VALID,0,VALID,22.1177,VALID,139,VALID,1.35273,
2008-08-10, 02:21:04,VALID,1009.29,VALID,0,VALID,96.2751,VALID,0,VALID,22.1161,VALID,112,VALID,1.22969,
2008-08-10, 02:22:04,VALID,1009.28,VALID,0,VALID,96.2675,VALID,0,VALID,22.0576,VALID,133,VALID,1.6082,
2008-08-10, 02:23:04,VALID,1009.24,VALID,0,VALID,96.2675,VALID,0,VALID,22.0966,VALID,122,VALID,1.50547,
2008-08-10, 02:24:04,VALID,1009.21,VALID,0,VALID,96.2751,VALID,0,VALID,22.1161,VALID,148,VALID,1.19297,
2008-08-10, 02:25:04,VALID,1009.17,VALID,0,VALID,96.2599,VALID,0,VALID,22.0771,VALID,145,VALID,1.275,
2008-08-10, 02:26:04,VALID,1009.12,VALID,0,VALID,96.2675,VALID,0,VALID,22.0771,VALID,174,VALID,1.67695,
2008-08-10, 02:27:04,VALID,1009.08,VALID,0,VALID,96.2599,VALID,0,VALID,22.0576,VALID,177,VALID,1.44805,
2008-08-10, 02:28:04,VALID,1009.04,VALID,0,VALID,96.2599,VALID,0,VALID,22.0382,VALID,179,VALID,1.75742,
2008-08-10, 02:29:04,VALID,1008.98,VALID,0,VALID,96.2599,VALID,0,VALID,22.017,VALID,178,VALID,1.48711,
2008-08-10, 02:30:04,VALID,1009.01,VALID,0,VALID,96.2828,VALID,0,VALID,22.0382,VALID,181,VALID,1.19375,
2008-08-10, 02:31:04,VALID,1008.99,VALID,0,VALID,96.2675,VALID,0,VALID,22.0187,VALID,131,VALID,1.5375,
2008-08-10, 02:32:04,VALID,1009.05,VALID,0,VALID,96.2751,VALID,0,VALID,22.0187,VALID,132,VALID,1.55664,
2008-08-10, 02:33:04,VALID,1009.06,VALID,0,VALID,96.2599,VALID,0,VALID,22.0382,VALID,136,VALID,1.55703,
2008-08-10, 02:34:04,VALID,1009.03,VALID,0,VALID,96.2523,VALID,0,VALID,22.0382,VALID,128,VALID,1.71328,
2008-08-10, 02:35:04,VALID,1008.99,VALID,0,VALID,96.2294,VALID,0,VALID,21.9992,VALID,132,VALID,2.05156,
2008-08-10, 02:36:04,VALID,1008.98,VALID,0,VALID,96.2065,VALID,0,VALID,21.9797,VALID,131,VALID,1.60938,
2008-08-10, 02:37:04,VALID,1008.95,VALID,0,VALID,96.2294,VALID,0,VALID,22.0187,VALID,143,VALID,1.36914,
2008-08-10, 02:38:04,VALID,1008.98,VALID,0,VALID,96.2218,VALID,0,VALID,21.9992,VALID,159,VALID,1.52891,
2008-08-10, 02:39:04,VALID,1008.96,VALID,0,VALID,96.2294,VALID,0,VALID,21.9992,VALID,145,VALID,1.0082,
2008-08-10, 02:40:04,VALID,1008.96,VALID,0,VALID,96.2218,VALID,0,VALID,21.9992,VALID,125,VALID,1.32773,
2008-08-10, 02:41:04,VALID,1008.97,VALID,0,VALID,96.2218,VALID,0,VALID,21.9992,VALID,129,VALID,1.76719,
2008-08-10, 02:42:04,VALID,1008.96,VALID,0,VALID,96.2065,VALID,0,VALID,21.9586,VALID,120,VALID,1.78398,
2008-08-10, 02:43:04,VALID,1008.95,VALID,0,VALID,96.2218,VALID,0,VALID,21.9797,VALID,116,VALID,1.8125,
2008-08-10, 02:44:04,VALID,1008.96,VALID,0,VALID,96.2294,VALID,0,VALID,21.9797,VALID,116,VALID,1.18633,
2008-08-10, 02:45:04,VALID,1008.95,VALID,0,VALID,96.1989,VALID,0,VALID,21.9603,VALID,136,VALID,0.776563,
2008-08-10, 02:46:04,VALID,1008.93,VALID,0,VALID,96.1913,VALID,0,VALID,21.9603,VALID,138,VALID,1.56562,
2008-08-10, 02:47:04,VALID,1008.93,VALID,0,VALID,96.2218,VALID,0,VALID,21.9797,VALID,104,VALID,1.30859,
2008-08-10, 02:48:04,VALID,1008.92,VALID,0,VALID,96.2141,VALID,0,VALID,21.9814,VALID,108,VALID,1.22891,
2008-08-10, 02:49:04,VALID,1008.92,VALID,0,VALID,96.1989,VALID,0,VALID,21.9992,VALID,133,VALID,1.90586,
2008-08-10, 02:50:04,VALID,1008.91,VALID,0,VALID,96.1989,VALID,0,VALID,21.9797,VALID,138,VALID,1.29219,
2008-08-10, 02:51:04,VALID,1008.87,VALID,0,VALID,96.1913,VALID,0,VALID,21.9797,VALID,152,VALID,1.41875,
2008-08-10, 02:52:04,VALID,1008.82,VALID,0,VALID,96.1913,VALID,0,VALID,21.9603,VALID,151,VALID,1.23516,
2008-08-10, 02:53:04,VALID,1008.77,VALID,0,VALID,96.1913,VALID,0,VALID,21.9213,VALID,169,VALID,2.08164,
2008-08-10, 02:54:04,VALID,1008.76,VALID,0,VALID,96.1836,VALID,0,VALID,21.9196,VALID,128,VALID,1.17852,
2008-08-10, 02:55:04,VALID,1008.73,VALID,0,VALID,96.1989,VALID,0,VALID,21.9213,VALID,151,VALID,1.50547,
2008-08-10, 02:56:04,VALID,1008.74,VALID,0,VALID,96.2065,VALID,0,VALID,21.9196,VALID,143,VALID,1.2,
2008-08-10, 02:57:04,VALID,1008.75,VALID,0,VALID,96.2065,VALID,0,VALID,21.9408,VALID,155,VALID,0.866797,
2008-08-10, 02:58:04,VALID,1008.74,VALID,0,VALID,96.2065,VALID,0,VALID,21.9408,VALID,146,VALID,1.20039,
2008-08-10, 02:59:04,VALID,1008.75,VALID,0,VALID,96.1913,VALID,0,VALID,21.9408,VALID,158,VALID,1.42891,
2008-08-10, 03:00:04,VALID,1008.72,VALID,0,VALID,96.2065,VALID,0,VALID,21.9213,VALID,155,VALID,0.989844,
2008-08-10, 03:01:04,VALID,1008.69,VALID,0,VALID,96.176,VALID,0,VALID,21.9408,VALID,166,VALID,1.12344,
2008-08-10, 03:02:04,VALID,1008.66,VALID,0,VALID,96.2065,VALID,0,VALID,21.9603,VALID,143,VALID,0.796094,
2008-08-10, 03:03:04,VALID,1008.63,VALID,0,VALID,96.2065,VALID,0,VALID,21.9408,VALID,147,VALID,1.2168,
2008-08-10, 03:04:04,VALID,1008.62,VALID,0.5,VALID,96.2065,VALID,0,VALID,21.9002,VALID,145,VALID,1.8918,
2008-08-10, 03:05:04,VALID,1008.59,VALID,0,VALID,96.2141,VALID,0,VALID,21.9408,VALID,141,VALID,0.909375,
2008-08-10, 03:06:04,VALID,1008.59,VALID,0,VALID,96.1913,VALID,0,VALID,21.9619,VALID,139,VALID,1.77695,
2008-08-10, 03:07:04,VALID,1008.58,VALID,0,VALID,96.2141,VALID,0,VALID,21.9603,VALID,162,VALID,0.930859,
2008-08-10, 03:08:04,VALID,1008.57,VALID,0,VALID,96.2141,VALID,0,VALID,21.9603,VALID,158,VALID,1.00312,
2008-08-10, 03:09:04,VALID,1008.55,VALID,0,VALID,96.2065,VALID,0,VALID,21.9797,VALID,152,VALID,1.37734,
2008-08-10, 03:10:04,VALID,1008.58,VALID,0,VALID,96.1989,VALID,0,VALID,21.9619,VALID,158,VALID,1.13047,
2008-08-10, 03:11:04,VALID,1008.57,VALID,0,VALID,96.2141,VALID,0,VALID,21.9797,VALID,135,VALID,1.28516,
2008-08-10, 03:12:04,VALID,1008.52,VALID,0,VALID,96.2141,VALID,0,VALID,21.9603,VALID,131,VALID,1.60391,
2008-08-10, 03:13:04,VALID,1008.54,VALID,0,VALID,96.1913,VALID,0,VALID,21.9797,VALID,141,VALID,0.972656,
2008-08-10, 03:14:04,VALID,1008.5,VALID,0,VALID,96.1913,VALID,0,VALID,21.9603,VALID,174,VALID,1.47773,
2008-08-10, 03:15:04,VALID,1008.45,VALID,0,VALID,96.1989,VALID,0,VALID,21.9603,VALID,193,VALID,1.38633,
2008-08-10, 03:16:04,VALID,1008.41,VALID,0,VALID,96.2218,VALID,0,VALID,21.9992,VALID,202,VALID,1.72734,
2008-08-10, 03:17:04,VALID,1008.37,VALID,0,VALID,96.1913,VALID,0,VALID,21.9797,VALID,192,VALID,1.53828,
2008-08-10, 03:18:04,VALID,1008.33,VALID,0,VALID,96.1836,VALID,0,VALID,21.9992,VALID,200,VALID,1.39063,
2008-08-10, 03:19:04,VALID,1008.35,VALID,0,VALID,96.1989,VALID,0,VALID,21.9992,VALID,204,VALID,1.0457,
2008-08-10, 03:20:04,VALID,1008.34,VALID,0,VALID,96.1913,VALID,0,VALID,21.9797,VALID,225,VALID,1.28164,
2008-08-10, 03:21:04,VALID,1008.33,VALID,0,VALID,96.1913,VALID,0,VALID,22.0187,VALID,199,VALID,1.58516,
2008-08-10, 03:22:04,VALID,1008.33,VALID,0,VALID,96.1989,VALID,0,VALID,21.9992,VALID,193,VALID,2.06133,
2008-08-10, 03:23:04,VALID,1008.37,VALID,0,VALID,96.1836,VALID,0,VALID,21.9603,VALID,180,VALID,1.17461,
2008-08-10, 03:24:04,VALID,1008.37,VALID,0,VALID,96.1836,VALID,0,VALID,21.9992,VALID,191,VALID,1.63398,
2008-08-10, 03:25:04,VALID,1008.38,VALID,0,VALID,96.176,VALID,0,VALID,21.9603,VALID,182,VALID,1.17109,
2008-08-10, 03:26:04,VALID,1008.36,VALID,0,VALID,96.176,VALID,0,VALID,21.9992,VALID,188,VALID,1.11563,
2008-08-10, 03:27:04,VALID,1008.36,VALID,0,VALID,96.1531,VALID,0,VALID,21.9992,VALID,198,VALID,1.48203,
2008-08-10, 03:28:04,VALID,1008.32,VALID,0,VALID,96.1684,VALID,0,VALID,21.9975,VALID,207,VALID,0.855469,
2008-08-10, 03:29:04,VALID,1008.3,VALID,0,VALID,96.1455,VALID,0,VALID,21.9992,VALID,209,VALID,2.05039,
2008-08-10, 03:30:04,VALID,1008.25,VALID,0,VALID,96.1379,VALID,0.105969,VALID,21.9603,VALID,197,VALID,1.7168,
2008-08-10, 03:31:04,VALID,1008.22,VALID,0,VALID,96.1455,VALID,0,VALID,22.0009,VALID,207,VALID,1.20469,
2008-08-10, 03:32:04,VALID,1008.19,VALID,0,VALID,96.1455,VALID,0,VALID,21.9603,VALID,199,VALID,1.1293,
2008-08-10, 03:33:04,VALID,1008.18,VALID,0,VALID,96.1226,VALID,0,VALID,21.9814,VALID,220,VALID,1.22734,
2008-08-10, 03:34:04,VALID,1008.19,VALID,0,VALID,96.1302,VALID,0,VALID,22.0009,VALID,193,VALID,1.26328,
2008-08-10, 03:35:04,VALID,1008.2,VALID,0,VALID,96.1226,VALID,0,VALID,21.9619,VALID,171,VALID,0.805469,
2008-08-10, 03:36:04,VALID,1008.25,VALID,0,VALID,96.1074,VALID,0,VALID,21.9408,VALID,186,VALID,0.915625,
2008-08-10, 03:37:04,VALID,1008.28,VALID,0,VALID,96.115,VALID,0,VALID,21.9603,VALID,196,VALID,0.351953,
2008-08-10, 03:38:04,VALID,1008.28,VALID,0,VALID,96.1302,VALID,0,VALID,21.9603,VALID,151,VALID,0.378516,
2008-08-10, 03:39:04,VALID,1008.26,VALID,0,VALID,96.1226,VALID,0,VALID,22.0009,VALID,105,VALID,0.274219,
2008-08-10, 03:40:04,VALID,1008.27,VALID,0,VALID,96.115,VALID,0,VALID,21.9603,VALID,107,VALID,0.428125,
2008-08-10, 03:41:04,VALID,1008.27,VALID,0,VALID,96.1074,VALID,0,VALID,21.9408,VALID,158,VALID,0.702344,
2008-08-10, 03:42:04,VALID,1008.28,VALID,0,VALID,96.115,VALID,0,VALID,21.9408,VALID,151,VALID,0.3625,
2008-08-10, 03:43:04,VALID,1008.28,VALID,0,VALID,96.115,VALID,0,VALID,21.9408,VALID,151,VALID,0.185547,